Regional Weather Roundup
Issued by NWS

Current Version | Previous Version | Graphics & Text | Print | Product List | Glossary On
Versions: 1 2 3 4 5 6 7 8 9 10 11 12 13 14 15 16 17 18 19 20 21 22 23 24 25 26 27 28 29 30 31 32 33 34 35 36 37 38 39 40 41 42 43 44 45 46 47 48 49 50
000
ASHW40 PHFO 221943
RWRHI

WEATHER ROUNDUP FOR HAWAII
NATIONAL WEATHER SERVICE HONOLULU HI
900 AM HST TUE AUG 22 2017

THIS IS AN AUTOMATED REPORT THAT HAS NOT BEEN QUALITY CONTROLLED.

NOTE..."FAIR" INDICATES FEW OR NO CLOUDS BELOW 12,000 FEET WITH NO
SIGNIFICANT WEATHER AND/OR OBSTRUCTIONS TO VISIBILITY.

* - THESE SITES REPORT LIMITED FIELDS
# - BUOY DATA PROVIDED BY PACIFIC ISLANDS OCEAN OBSERVING SYSTEM.

HIZ001>004-222000-
KAUAI-NIIHAU-

CITY           SKY/WX    TMP DP  RH WIND       PRES   REMARKS
LIHUE APT      PTSUNNY   83  75  77 NE13      30.05S HX  90
PORT ALLEN*      N/A     84 N/A N/A NE16G22     N/A
POIPU*           N/A     82 N/A N/A E7G16       N/A
PRINCEVILLE*     N/A     79 N/A N/A SE5         N/A
KOKOLE POINT*  NOT AVBL
MOLOAA DAIRY*    N/A     82  75  78 E8G15       N/A
WAIMEA HTS*      N/A     88  72  58 SE3         N/A  HX  94
PUU OPAE*        N/A     79  66  65 S3          N/A
PUU LUA*       NOT AVBL
MAKAHA RIDGE*    N/A     79  66  65 N2          N/A
$$

HIZ005>011-222000-
OAHU-

CITY           SKY/WX    TMP DP  RH WIND       PRES   REMARKS
HONOLULU       MOSUNNY   80  70  71 NE14G23   30.02R
KALAELOA       SUNNY     85  70  60 NE9       30.03R
KANEOHE MCB    RAIN      81  73  78 NE9G20    30.01R
WHEELER FIELD  PTSUNNY   81  72  74 E6        30.03S
BELLOWS*         N/A    N/A N/A N/A E17         N/A
KAHUKU*          N/A    N/A N/A N/A NE10G18     N/A
WHEELER*         N/A    N/A N/A N/A NE5         N/A
WAIANAE HARBOR   N/A    N/A N/A N/A NE6G16      N/A
DILLINGHAM*      N/A     70  59  68 SW5G10      N/A
KAHUKU TRN*      N/A     81  75  83 W9G24       N/A
KAWAILOA*        N/A     77  72  83 E7G15       N/A
KII*           NOT AVBL
MAKUA RANGE*     N/A     84  68  58 NW5G15      N/A
OAHU FOREST NW   N/A     75  70  83 E12G24      N/A
SCHOFIELD BRK*   N/A     79  70  73 MISG        N/A
SCHOFIELD S*   NOT AVBL
WAIANAE VLY*     N/A     84  68  58 N6G18       N/A
KUAOKALA*        N/A     81  73  78 NE13G21     N/A
HONOULIUULI*   NOT AVBL
MOKUOLOE IS*   NOT AVBL
PALEHUA*         N/A     73  66  78 NE9G22      N/A
WAIAWA PHB*    NOT AVBL
$$

HIZ012>013-222000-
MOLOKAI-

CITY           SKY/WX    TMP DP  RH WIND       PRES   REMARKS
MOLOKAI AIRPT  MOSUNNY   81  74  79 NE14G26   30.03S
KALAUPAPA      NOT AVBL
MAKAPULAPAI*     N/A     79  75  89 E16G26      N/A
MOLOKAI 1*       N/A     70  63  78 S1G7        N/A
PUU ALII*        N/A     66  66 100 N2G8        N/A
$$

HIZ016-222000-
KAHOOLAWE-

CITY           SKY/WX    TMP DP  RH WIND       PRES   REMARKS
KAHOOLAWE*     NOT AVBL
HAKIOAWA*        N/A     73  72  96 MISG      30.45R
HONOKANAIA*      N/A     79  72  79 NE7G20    29.94R
KANELOA*         N/A     75  72  88 NE15G28   30.07R
KEALIALALO*    NOT AVBL
LUA MAKIKA*    NOT AVBL
$$

HIZ014>015-222000-
LANAI-

CITY           SKY/WX    TMP DP  RH WIND       PRES   REMARKS
LANAI CITY     PTSUNNY   78  72  81 NE7       30.08R
LANAI 1*         N/A     73  73 100 NE17G28     N/A
$$

HIZ017>028-222000-
MAUI-

CITY           SKY/WX    TMP DP  RH WIND       PRES   REMARKS
KAHULUI        MOSUNNY   79  74  84 NE20G26   30.02R
KAPALUA-W MAUI RAIN      77  73  88 NE18      30.02
HANA AIRPORT   CLOUDY    79  75  89 E5        30.07S
HANA*          NOT AVBL
HALEAKALA SUMM NOT AVBL
MAALAEA BAY*     N/A     84 N/A N/A N16G24      N/A
HALEAKALA*     NOT AVBL
KAUPO GAP*     NOT AVBL
KULA 1*          N/A     65  55  69 W2          N/A
$$

HIZ023>026-222000-
BIG ISLAND OF HAWAII COAST AND LOWER SLOPES-

CITY           SKY/WX    TMP DP  RH WIND       PRES   REMARKS
KAILUA KONA    MOSUNNY   82  73  74 W7        29.97R
HILO           CLOUDY    75  75 100 W3        30.04R
HONOKAA*         N/A     73 N/A N/A VRB1        N/A
KAWAIHAE MWT*    N/A     84 N/A N/A NW9         N/A
KAWAIHAE*        N/A     81 N/A N/A W9        29.98S
SOUTH POINT*     N/A     75 N/A N/A VRB17G28    N/A
UPOLU AIRPORT* NOT AVBL
KAMUELA*         N/A     73  70  88 NE16      30.11S
HAKALAU*         N/A     56  53  90 W6G12       N/A
KALOKO-HONOKO*   N/A     84  73  70 SW6       29.97S HX  91
PALI 2*          N/A     73  66  78 S10         N/A
KEALAKOMO*       N/A     79  73  83 NE12G17     N/A
KAUPULEHU*       N/A     81  70  69 W7G14       N/A
KAPAPALA*        N/A     76  74  94 E3G9        N/A
LOWER KAHUKU*    N/A     70  68  94 NE2G10      N/A
PUHE CS*         N/A     82  70  65 W6G12       N/A
PUHO CS*         N/A     85  69  59 W2          N/A
PTA KEAMUKU*     N/A     73  64  73 NW5         N/A
WAIKOLOA*        N/A     82  68  61 W6G12       N/A
$$

HIZ027>028-222000-
BIG ISLAND OF HAWAII INTERIOR AND SUMMMITS-

CITY           SKY/WX    TMP DP  RH WIND       PRES   REMARKS
BRADSHAW FIELD PTSUNNY   64  56  74 SE7       30.37R
MK VISITOR CEN   N/A     54  43  66 N7          N/A
MAUNA KEA*       N/A     36  34  93 E5          N/A
MAUNA LOA*       N/A     48  41  76 MISG        N/A
MAUNA LOA 1*   NOT AVBL
PTA KIPUKA*      N/A     72  55  56 E5          N/A
PTA RANGE 17*    N/A     68  57  68 W12G24      N/A
PTA WEST*        N/A     72  59  64 N5G10       N/A
NENE CABIN*      N/A     61  59  94 E9G18       N/A
AHUMOA*          N/A     68  51  55 SW1         N/A
PTA PORTABLE*  NOT AVBL
PUU MALI*        N/A     61  48  63 SE20G33     N/A
$$

HIC003-222000-
NORTHWEST ISLANDS-

CITY           SKY/WX    TMP DP  RH WIND       PRES   REMARKS
MIDWAY ISLAND  LGT RAIN  79  75  89 NE14      30.17S
MIDWAY NOS*      N/A     81 N/A N/A MISG      30.16S
FRENCH FRIGATE NOT AVBL
$$

PHZ110>124-180-222000-
BUOY REPORTS

STATION/POSITION TIME  TEMP    WIND        PRES    WAVE   SWELL
                       AIR SEA DIR/SP/G            HT/PER HT/DIR
                 (UTC) (F)     (DEG/KT/KT) (MB)    (FT/S) (FT/D)
BUOY 51001       1920   80 81   90/ 12/ 16 1018.1
BUOY 51101       1850   80 81   80/ 12/ 14 1018.1F   4/ 7   3/ 80
BUOY 51100       NOT AVBL
BUOY 51002       1920   80 81   70/ 16/ 19 1014.2
BUOY 51003       1850   81 82  100/ 10/ 12 1015.2R   5/11   5/130
BUOY 51004       1850      80   70/ 17/ 21 1015.0R   7/ 8   3/150
WAIMEA BAY#      1902      78                N/A     3/ 7   2/ 10
MOKAPU POINT#    1904      81                N/A     6/ 7   2/140
LANAI#           NOT AVBL
BARBERS PT 2#    NOT AVBL
PAUWELA#         1909      80                N/A     6/ 6
HILO#            1927      81                N/A     6/ 8   2/100
KANEOHE BAY#     NOT AVBL
KANEOHE BAY 2#   NOT AVBL
HANALEI#         1922      81                N/A     5/ 8
KAHULUI HARBOR   1912   79 81   40/ 12/ 17 1016.6
HONOLULU HARBOR  1918   83 81   50/  5/ 10 1017.2
PEARL HARBOR#    1830      81                N/A     3/11   2/160
KILO NALU        NOT AVBL
HILO HARBOR      1912   76 79  230/  5/  6 1016.9
MOKUOLOE         1836   81 82   80/ 10/ 13 1017.1R
NAWILIWILI       1918   80      70/ 10/ 12 1017.1
WHOTS BUOY       NOT AVBL
BUOY 51028       NOT AVBL
$$

......................KEY........................................
  SKY/WX - SKY CONDITIONS/PRESENT WEATHER
  TMP    - TEMPERATURE IN FAHRENHEIT
  DWPT   - DEWPOINT IN FAHRENHEIT
  RH     - RELATIVE HUMIDITY IN PERCENT
  WIND   - DIRECTION AND SPEED /MPH FOR ISLANDS...KTS FOR BUOYS/
  PRES   - MEAN SEA LEVEL PRESSURE IN INCHES OF HG
  VSB    - VISIBILITY IN MILES
  HX     - HEAT INDEX
  WCI    - WIND CHILL INDEX
  VRB    - VARIABLE WIND DIRECTION
  N/A    - NOT AVAILABLE




USA.gov is the U.S. government's official web portal to all federal, state and local government web resources and services.